STARLINK-31256, 59161

Orbit data source: Space-Track

STARLINK-31256, 59161 is a payload satellite owned by SpaceX/Seattle (US) in LEO that was launched on Mon, 04 Mar 2024 UTC via an FALCON 9 launch vehicle from the Air Force Eastern Test Range (AFETR). Payload-class satellites include a variety of spacecraft equipped with specific instruments for various scientific and technological missions. These include communications satellites like Starlink; space stations such as the ISS; scientific satellites like the Hubble; Earth observation satellites from companies like Planet Labs, Umbra, and HawkEye 360; GPS; miniature CubeSats for education and research; and military/defense satellites.

Loading next visibility...
Identifier
59161, 2024-044K
Orbit
LEO
Country
Flag of USUS
Related business
Manufacturer
SpaceX/Seattle
Mission
Operational Commercial Communications
Bus & Motor
STARLINK V2M, Unknown motor
Mass
730 kg wet, ~700 kg dry
Launch date (UTC)
2024-03-04 (2 years ago)
Launch vehicle
FALCON 9
Launch site
Air Force Eastern Test Range (AFETR)
Object type
Payload
Rocket body
Debris
Shape & HBR
Box + 2 Pan, 14.5 m
Radar Cross Section
33.884 m², Large (>1 m²)

Expand to show TLE details & history
Last TLE update: 10 hours ago

TLE from 10 hours ago
0 STARLINK-31256
1 59161U 24044K   25251.16032870 -.00003845  00000-0 -13029-3 0  9998
2 59161  43.0009  57.5524 0001169 293.8753  66.1976 15.27574649 85684
Epoch: 2025-09-08T03:50Z
TLE epoch observation values (Epoch: 2025-09-08T03:50:52.399Z)
Latitude
-0.00003°
Longitude
12.3646°
Altitude
482.517 km
Speed
7.626 km/s
True Right ascension
03h 50m 12s
True Declination
0° 00' 00"
Sunlit
Object was in daylight at epoch
Visualization orbit readout
Latitude
Unknown
Longitude
Unknown
Altitude
Unknown
Speed
Unknown
Apparent Right ascension
Unknown
Apparent Declination
Unknown
Sunlit
N/A
Visualization observer readout
Local Sidereal Time
06:24:18
Azimuth
Unknown
Elevation
Unknown
Doppler factor
Unknown
Orbital elements
Apogee altitude
485.812 km
Perigee altitude
484.208 km
Semi-major axis
6,863.147 km
Eccentricity
0.00012
Inclination
43.0009°
RAAN
57.5524°
Arg. of periapsis
293.8753°
True anomaly
66.20986°
Mean anomaly
66.1976°
Eccentric anomaly
66.20373°
Mean motion
3.81732 °/min
Orbital period
94.31 mins
BSTAR
-0.00013029
Loading maneuver chart data...
Computing Atmospheric mass density...
Loading historical data...
Loading historical data...
Loading historical data...
Loading historical data...
Loading historical data...
Loading historical data...
Loading historical data...

Documentation

Showing up to 5 results
|